Location: Newark
(30.8333°N, 61.6667°E)
Time: 05:30:23
(UTC+00:00)

Hubble Space Telescope - Visible Passes

Search period start: 23 July 2019 00:00
Search period end: 02 August 2019 00:00
Orbit: 536 x 540 km, 28.5° (Epoch: 22 July)

Date Brightness Start Highest point End Pass type
(mag) Time Alt. Az. Time Alt. Az. Time Alt. Az.
25 Jul 3.2 23:19:24 11° SSE 23:19:24 11° SSE 23:20:16 10° SE visible
26 Jul 3.1 23:09:24 13° SE 23:09:24 13° SE 23:10:50 10° ESE visible
27 Jul 3.0 22:59:23 15° SE 22:59:23 15° SE 23:00:49 10° ESE visible
28 Jul 1.4 00:34:53 10° WSW 00:38:50 44° SSE 00:42:47 10° E visible
28 Jul 3.1 22:49:21 16° ESE 22:49:21 16° ESE 22:50:36 10° ESE visible
29 Jul 1.2 00:24:41 13° WSW 00:28:16 50° S 00:32:16 10° E visible
29 Jul 3.2 22:39:19 15° ESE 22:39:19 15° ESE 22:40:17 10° ESE visible
30 Jul 1.0 00:14:39 17° WSW 00:17:43 55° S 00:21:46 10° E visible
30 Jul 3.4 22:29:18 13° ESE 22:29:18 13° ESE 22:29:53 10° E visible
31 Jul 0.9 00:04:38 22° WSW 00:07:10 59° S 00:11:15 10° E visible
31 Jul 3.7 22:19:18 11° E 22:19:18 11° E 22:19:27 10° E visible
31 Jul 0.8 23:54:38 28° WSW 23:56:37 62° S 00:00:43 10° E visible
01 Aug 0.8 23:44:41 38° WSW 23:46:05 63° S 23:50:10 10° E visible
